TimeMDT,TemperatureF,Dew PointF,Humidity,Sea Level PressureIn,VisibilityMPH,Wind Direction,Wind SpeedMPH,Gust SpeedMPH,PrecipitationIn,Events,Conditions,WindDirDegrees,DateUTC
12:53 AM,68.0,64.0,87,29.98,9.0,NE,4.6,-,N/A,,Partly Cloudy,40,2013-08-23 06:53:00
1:53 AM,66.9,64.0,90,29.96,8.0,Calm,Calm,-,N/A,,Mostly Cloudy,0,2013-08-23 07:53:00
2:53 AM,66.9,64.0,90,29.95,8.0,NW,5.8,-,N/A,,Overcast,310,2013-08-23 08:53:00
3:53 AM,66.9,64.0,90,29.93,7.0,NW,11.5,-,0.00,,Partly Cloudy,320,2013-08-23 09:53:00
4:53 AM,66.0,63.0,90,29.94,7.0,NNE,4.6,-,N/A,,Clear,30,2013-08-23 10:53:00
5:53 AM,64.9,63.0,93,29.93,5.0,NE,4.6,-,N/A,,Clear,50,2013-08-23 11:53:00
6:12 AM,64.4,62.6,94,30.07,4.0,East,9.2,-,N/A,,Scattered Clouds,90,2013-08-23 12:12:00
6:20 AM,64.4,64.4,100,30.08,4.0,East,9.2,-,N/A,,Mostly Cloudy,90,2013-08-23 12:20:00
6:30 AM,64.4,64.4,100,30.08,1.8,East,8.1,-,N/A,,Overcast,100,2013-08-23 12:30:00
6:46 AM,66.2,64.4,94,30.08,2.5,East,6.9,-,N/A,,Overcast,90,2013-08-23 12:46:00
6:53 AM,64.9,64.0,97,29.96,2.0,ESE,6.9,-,N/A,,Overcast,110,2013-08-23 12:53:00
7:24 AM,64.4,64.4,100,30.08,2.5,ESE,4.6,-,N/A,,Scattered Clouds,120,2013-08-23 13:24:00
7:35 AM,66.2,64.4,94,30.07,3.0,SE,4.6,-,N/A,,Clear,130,2013-08-23 13:35:00
7:53 AM,68.0,63.0,84,29.96,6.0,Calm,Calm,-,N/A,,Haze,0,2013-08-23 13:53:00
8:53 AM,71.1,60.1,68,29.96,10.0,South,12.7,-,N/A,,Clear,180,2013-08-23 14:53:00
9:53 AM,75.9,57.9,54,29.96,10.0,SSW,6.9,-,N/A,,Clear,210,2013-08-23 15:53:00
10:53 AM,80.1,57.9,47,29.94,10.0,Calm,Calm,-,N/A,,Clear,0,2013-08-23 16:53:00
11:53 AM,84.9,60.1,43,29.92,10.0,South,6.9,-,N/A,,Clear,180,2013-08-23 17:53:00
12:53 PM,87.1,60.1,40,29.90,10.0,SSE,9.2,-,N/A,,Clear,150,2013-08-23 18:53:00
1:53 PM,89.1,62.1,40,29.88,10.0,South,13.8,19.6,N/A,,Clear,180,2013-08-23 19:53:00
2:53 PM,90.0,61.0,38,29.86,10.0,SSE,13.8,24.2,N/A,,Partly Cloudy,160,2013-08-23 20:53:00
3:53 PM,86.0,62.1,44,29.86,10.0,South,13.8,-,N/A,,Clear,170,2013-08-23 21:53:00
4:53 PM,90.0,59.0,35,29.84,10.0,South,13.8,-,N/A,,Clear,180,2013-08-23 22:53:00
5:53 PM,90.0,57.9,34,29.82,10.0,South,15.0,-,N/A,,Clear,170,2013-08-23 23:53:00
6:53 PM,86.0,59.0,40,29.81,10.0,SSE,10.4,-,N/A,,Clear,160,2013-08-24 00:53:00
7:53 PM,79.0,57.9,48,29.83,10.0,SSE,9.2,-,N/A,,Clear,160,2013-08-24 01:53:00
8:53 PM,77.0,55.0,47,29.86,10.0,South,10.4,-,N/A,,Clear,170,2013-08-24 02:53:00
9:53 PM,75.9,53.1,45,29.87,10.0,South,12.7,-,N/A,,Clear,180,2013-08-24 03:53:00
10:53 PM,72.0,53.1,51,29.87,10.0,South,11.5,-,N/A,,Clear,170,2013-08-24 04:53:00
11:53 PM,71.1,54.0,55,29.88,10.0,South,10.4,-,N/A,,Clear,170,2013-08-24 05:53:00